EW8146 Weather Reports


Display with metric or nautical units.
time (UTC)temp
F
wind
direction
speed
MPH
gust
MPH
rain 1hr
in
rain 24hr
in
rain mn
in
humidity
%
barometer
mb
20260503020053 75 283 0.0 1.0 0.00 0.00 0.00 24 1009.0
20260503014558 75 267 0.0 2.0 0.00 0.00 0.00 23 1008.9
20260503013050 76 291 0.0 5.0 0.00 0.00 0.00 23 1009.2
20260503011550 77 285 0.0 3.0 0.00 0.00 0.00 21 1009.2
20260503010047 78 286 0.0 0.0 0.00 0.00 0.00 16 1009.3
20260503004548 79 288 0.0 3.0 0.00 0.00 0.00 16 1009.3
20260503003045 80 284 0.0 1.0 0.00 0.00 0.00 14 1009.3
20260503001544 80 284 0.0 1.0 0.00 0.00 0.00 14 1009.4
20260503000046 81 122 0.0 0.0 0.00 0.00 0.00 15 1009.4
20260502234551 79 122 0.0 0.0 0.00 0.00 0.00 16 1009.4
20260502233040 80 110 0.0 0.0 0.00 0.00 0.00 13 1009.6
20260502231540 82 271 0.0 5.0 0.00 0.00 0.00 13 1009.8
20260502230036 83 139 0.0 0.0 0.00 0.00 0.00 14 1010.0
20260502224535 82 98 0.0 0.0 0.00 0.00 0.00 16 1010.1
20260502223034 81 85 0.0 2.0 0.00 0.00 0.00 15 1010.3
20260502221531 82 82 0.0 6.0 0.00 0.00 0.00 16 1010.4
20260502220030 83 101 0.0 0.0 0.00 0.00 0.00 16 1010.6
20260502214538 83 122 0.0 4.0 0.00 0.00 0.00 15 1010.9
20260502213025 83 64 0.0 1.0 0.00 0.00 0.00 17 1011.1
20260502211532 83 129 0.0 2.0 0.00 0.00 0.00 15 1011.3
20260502210025 83 148 0.0 2.0 0.00 0.00 0.00 18 1011.4
20260502204519 82 162 0.0 2.0 0.00 0.00 0.00 17 1011.6
20260502203016 82 102 0.0 2.0 0.00 0.00 0.00 18 1011.7
20260502201514 81 130 0.0 3.0 0.00 0.00 0.00 20 1012.0
20260502200011 81 126 0.0 2.0 0.00 0.00 0.00 21 1012.2
20260502194507 79 98 0.0 1.0 0.00 0.00 0.00 20 1012.4
20260502193005 78 269 0.0 1.0 0.00 0.00 0.00 24 1012.5
20260502191501 77 138 0.0 1.0 0.00 0.00 0.00 27 1012.8
20260502190100 77 322 0.0 0.0 0.00 0.00 0.00 31 1013.0
20260502184603 76 127 0.0 2.0 0.00 0.00 0.00 29 1013.4
20260502183054 75 128 0.0 0.0 0.00 0.00 0.00 33 1013.6
20260502181550 74 124 0.0 0.0 0.00 0.00 0.00 32 1013.9
20260502163028 64 253 0.0 2.0 0.00 0.00 0.00 39 1014.9
20260502161522 62 129 0.0 0.0 0.00 0.00 0.00 41 1015.0
20260502151511 56 304 0.0 1.0 0.00 0.00 0.00 50 1014.8
20260502123056 49 77 0.0 1.0 0.00 0.00 0.00 58 1014.2
20260502121556 50 75 0.0 1.0 0.00 0.00 0.00 57 1014.1
20260502114555 50 133 0.0 1.0 0.00 0.00 0.00 56 1014.1
20260502113052 50 88 0.0 0.0 0.00 0.00 0.00 56 1014.2
20260502111604 49 127 0.0 0.0 0.00 0.00 0.00 59 1014.3
20260502110051 48 106 0.0 0.0 0.00 0.00 0.00 59 1014.4
20260502104548 48 94 0.0 0.0 0.00 0.00 0.00 60 1014.4
20260502103102 48 133 0.0 0.0 0.00 0.00 0.00 61 1014.5
20260502101649 48 139 0.0 0.0 0.00 0.00 0.00 59 1014.4
20260502071533 46 164 0.0 0.0 0.00 0.00 0.00 65 1014.5
20260502070031 47 136 0.0 0.0 0.00 0.00 0.00 63 1014.5
20260502064528 51 140 0.0 0.0 0.00 0.00 0.00 56 1014.5
20260502063028 53 124 0.0 0.0 0.00 0.00 0.00 51 1014.4
20260502061521 53 135 0.0 1.0 0.00 0.00 0.00 50 1014.4
20260502060021 53 135 0.0 2.0 0.00 0.00 0.00 50 1014.3
20260502054530 53 133 0.0 1.0 0.00 0.00 0.00 49 1014.4
20260502053019 54 127 0.0 0.0 0.00 0.00 0.00 49 1014.5
20260502051519 54 118 0.0 0.0 0.00 0.00 0.00 47 1014.4
20260502050018 54 118 0.0 0.0 0.00 0.00 0.00 46 1014.5
20260502044518 54 118 0.0 0.0 0.00 0.00 0.00 46 1014.4
20260502043017 54 118 0.0 0.0 0.00 0.00 0.00 47 1014.5
20260502041517 54 118 0.0 0.0 0.00 0.00 0.00 45 1014.5
20260502040016 55 118 0.0 0.0 0.00 0.00 0.00 42 1014.3
20260502034515 57 118 0.0 0.0 0.00 0.00 0.00 39 1014.1
20260502033014 59 118 0.0 0.0 0.00 0.00 0.00 36 1014.0
20260502031516 60 118 0.0 0.0 0.00 0.00 0.00 31 1013.8
20260502030014 62 118 0.0 0.0 0.00 0.00 0.00 29 1013.7
20260502024513 65 118 0.0 0.0 0.00 0.00 0.00 26 1013.6
20260502023013 69 118 0.0 0.0 0.00 0.00 0.00 24 1013.6
20260502021515 70 118 0.0 0.0 0.00 0.00 0.00 22 1013.6